Погода в Лейпи

Россия / Мурманская область     67°29′51″N   30°42′36″E
темп.,
°C
ветер,
м/с
пор.,
м/с
влажн.,
%
обл.,
%
осадки,
мм/ч
давл.,
гПа
погр.,
м
18 мая, вт
вт1800:00+7вюв229267 0.0 101317
03:00+6вюв229484 0.0 101226
06:00+8в2391100 0.3 1011130
09:00+11вюв3881100 0.3 1009385
12:00+11вюв31191100 1.6 1008516
15:00+10юв31094100 3.5 1007525
18:00+10ююв169597 0.0 1006285
21:00+10ю1198100 0.0 100637
19 мая, ср
ср1900:00+9ююз119824 0.0 100617
03:00+7юз119780 0.0 100710
06:00+8юз118876 0.0 100763
09:00+11ююз1268100 0.0 1007371
12:00+13юз1257100 0.0 1007554
15:00+10ююв2478100 0.2 1008151
18:00+10всв1180100 0.3 1008132
21:00+9св2784100 0.6 1005252
20 мая, чт
чт2000:00+9св2592100 3.9 1003204
03:00+8св1299100 4.1 100187
06:00+9ссв1299100 0.1 99998
09:00+8сз1199100 7.6 99984
12:00+7ссз2398100 1.9 1001189
15:00+6ссз2397100 2.4 1003264
18:00+5ссв2596100 0.2 1005327
21:00+4св3795100 0.4 1006368
21 мая, пт
пт2100:00+4ссв2597100 0.3 1005289
03:00+3ссв2698100 1.4 1005277
06:00+3ссв2697100 0.1 1005286
09:00+3с3597100 0.3 1005284
12:00+2с3596100 0.1 1004305
15:00+3с3494100 0.2 1004359
18:00+3с3595100 0.0 1002384
21:00+2с2698100 0.3 1001330
22 мая, сб
сб2200:00+1сз2399100 1.8 1000183
03:00+1сз22100100 3.4 100082
06:00+1сз2399100 0.8 1000151
09:00+1зсз2599100 1.8 1002229
12:00+3сз4685100 0.1 1004635
15:00+5з3577100 0.1 1005839
18:00+8юз257086 0.0 1005928
21:00+7юв238499 0.0 100581